Regional Weather Roundup
Issued by NWS

Home | Current Version | Previous Version | Text Only | Print | Product List | Glossary On
Versions: 1 2 3 4 5 6 7 8 9 10 11 12 13 14 15 16 17 18 19 20 21 22 23 24 25 26 27 28 29 30 31 32 33 34 35 36 37 38 39 40 41 42 43 44 45 46 47 48 49 50
000
ASUS43 KMKX 010325
RWRWI

WISCONSIN REGIONAL WEATHER ROUNDUP
NATIONAL WEATHER SERVICE MILWAUKEE/SULLIVAN WI
1000 PM CDT FRI OCT 31 2014

NOTE: "FAIR" INDICATES FEW OR NO CLOUDS BELOW 12,000 FEET WITH NO
SIGNIFICANT WEATHER AND/OR OBSTRUCTIONS TO VISIBILITY.

WIZ001-002-006>008-014>016-023>028-010400-
NORTHWEST WISCONSIN

CITY           SKY/WX    TMP DP  RH WIND       PRES   REMARKS
SUPERIOR ARPT  CLEAR     22  19  87 CALM      30.49S
ASHLAND        CLEAR     22  19  89 CALM      30.49F
HAYWARD        CLEAR     24  19  81 CALM      30.47F
SIREN          CLEAR     22  16  77 CALM      30.49R
CUMBERLAND     CLEAR     25  19  80 CALM      30.48R
RICE LAKE      CLEAR     24  22  89 CALM      30.50R
CHETEK         CLEAR     24  20  82 CALM      30.49R
LADYSMITH      CLEAR     24  20  85 CALM      30.50R
EAU CLAIRE     CLEAR     24  17  74 CALM      30.48S
MENOMONIE      CLEAR     28  19  69 CALM      30.50R
NEW RICHMOND   CLEAR     25  19  77 CALM      30.49R
OSCEOLA        CLEAR     24  19  80 CALM      30.53R
$$

WIZ003>005-009-010-017-018-010400-
NORTH CENTRAL WISCONSIN

CITY           SKY/WX    TMP DP  RH WIND       PRES   REMARKS
MANITOWISH WTR FOG       16  15  96 CALM      30.45R VSB 3/4
ARBOR VITAE    CLEAR     22  21  93 CALM      30.45R
WOODRUFF       CLEAR     22  21  93 CALM      30.45R
RHINELANDER    CLOUDY    27  18  69 N6        30.45S WCI  20
EAGLE RIVER    MOCLDY    26  18  72 CALM      30.44S
LAND O LAKES   PTCLDY    23  21  92 CALM      30.44F
PHILLIPS       CLEAR     21  18  88 CALM      30.46R
TOMAHAWK       PTCLDY    25  19  79 CALM      30.46F
MEDFORD        CLEAR     25  19  78 NE3       30.46S
MERRILL        CLOUDY    29  20  68 NE6       30.47R WCI  23
$$

WIZ029-030-035-036-043>047-010400-
CENTRAL WISCONSIN

CITY           SKY/WX    TMP DP  RH WIND       PRES   REMARKS
WAUSAU         CLEAR     29  19  66 N6        30.45S WCI  23
MOSINEE        CLEAR     28  21  74 N7        30.47R WCI  21
MARSHFIELD     CLEAR     29  19  66 N8        30.46S WCI  21
STEVENS POINT  PTCLDY    27  17  67 N5        30.47R WCI  21
WAUPACA        CLEAR     29  18  63 CALM      30.47S
WAUTOMA        CLEAR     29  17  60 N3        30.47R
WISC RAPIDS    CLEAR     27  19  72 N6        30.48R WCI  20
CAMP DOUGLAS   CLEAR     24  20  85 CALM      30.47R
$$

WIZ011>013-019>022-031-037>040-048>050-010400-
NORTHEAST WISCONSIN

CITY           SKY/WX    TMP DP  RH WIND       PRES   REMARKS
ANTIGO         MOCLDY    28  19  69 N12       30.44S WCI  18
SHAWANO        CLOUDY    33  19  57 N5        30.47S WCI  28
OCONTO         CLOUDY    32  21  63 N8        30.45R WCI  25
STURGEON BAY   CLOUDY    36  21  55 N16       30.42S WCI  26
GREEN BAY      MOCLDY    33  19  56 N14       30.45  WCI  23
MANITOWOC      CLOUDY    34  23  64 N15       30.42R WCI  24
APPLETON       MOCLDY    30  18  59 N12       30.45R WCI  21
CLINTONVILLE   MOCLDY    30  19  64 N5        30.47R WCI  25
OSHKOSH        PTCLDY    33  17  51 N21G28    30.44R WCI  21
$$

WIZ032>034-041-042-053>061-010400-
SOUTHWEST WISCONSIN

CITY           SKY/WX    TMP DP  RH WIND       PRES   REMARKS
LA CROSSE      CLEAR     32  18  56 NE6       30.49S WCI  26
SPARTA         CLEAR     28  19  68 CALM      30.50R
VIROQUA        CLEAR     29  20  70 N7        30.46R WCI  22
BOSCOBEL       CLEAR     25  19  78 CALM      30.48R HAZE
PRAIRIE DU CHI CLEAR     33  19  56 N5        30.48R WCI  28
PLATTEVILLE    CLEAR     29  19  68 N8        30.46R WCI  21
$$

WIZ056-057-062-063-064-067-068-010400-
SOUTH CENTRAL WISCONSIN

CITY           SKY/WX    TMP DP  RH WIND       PRES   REMARKS
REEDSBURG      CLEAR     31  18  60 N8        30.46R WCI  23
BARABOO/DELLS  CLEAR     31  17  57 N7        30.45R WCI  24
LONE ROCK      CLEAR     34  17  50 N5        30.47R WCI  30
MINERAL POINT  CLEAR     32  19  59 N8        30.44R WCI  25
MADISON        PTCLDY    29  18  63 N7        30.44R WCI  22
MIDDLETON      CLEAR     31  19  61 N8        30.44R WCI  23
WATERTOWN      CLOUDY    33  19  54 NE12      30.41R WCI  25
MONROE         CLEAR     30  21  69 N9        30.42R WCI  22
JANESVILLE     CLOUDY    36  19  51 N13G18    30.41R WCI  27
$$

WIZ051-052-058>065-066-070>072-010400-
SOUTHEAST WISCONSIN

CITY           SKY/WX    TMP DP  RH WIND       PRES   REMARKS
MILWAUKEE      FLURRIES  36  19  50 N17G28    30.37R WCI  26
WAUKESHA       CLOUDY    32  18  55 N20G26    30.40R WCI  20
MILWAUKEE/TIMM CLOUDY    34  18  51 N17G24    30.40R WCI  23
RACINE         CLOUDY    38  22  52 N22G33    30.37R WCI  27
BURLINGTON     CLOUDY    33  16  49 N22G28    30.38S WCI  21
KENOSHA        CLOUDY    36  20  52 N13G22    30.36R WCI  27
FOND DU LAC    CLOUDY    34  17  50 N20       30.44R WCI  23
SHEBOYGAN      CLOUDY    34  20  56 N14       30.41R WCI  25
WEST BEND      CLOUDY    32  18  55 N15G23    30.40R WCI  22
JUNEAU         CLOUDY    33  19  58 N13       30.43R WCI  23
$$

LSZ147-162-010400-
LAKE SUPERIOR

STATION/POSITION TIME  TEMP    WIND        PRES    WAVE
                       AIR SEA DIR/SP/G            HT/PER
                 (UTC) (F)     (DEG/KT/KT) (MB)    (FT/S)
W MID LAKE BUOY  0250   36 44  350/  8/ 10 1032.7F   3/ 6
DEVILS ISLAND    0300   36      CALM  /  1 1032.9F
PORT WING        0240   27     150/  2/  4 1032.2F
SAXON HARBOR     0200   28     190/  1/  5 1032.2
$$

LMZ867-665-643>646-010400-
LAKE MICHIGAN

STATION/POSITION TIME  TEMP    WIND        PRES    WAVE
                       AIR SEA DIR/SP/G            HT/PER
                 (UTC) (F)     (DEG/KT/KT) (MB)    (FT/S)
CHAMBERS ISLAND  0240   37     340/ 21/ 31 1030.1S
N MID LAKE BUOY  0250   36 48   10/ 23/ 29 1029.7R   6/ 6
NORTHPORT PIER   0200   36     360/ 21     1030.1R
SISTER BAY       0228          360/ 23/ 34   N/A
KEWAUNEE LAKESHO 0300   35      10/ 12/ 18 1029.0R
SHEBOYGAN LAKESH 0300   36 47  350/ 24/ 27 1030.4R
PORT WASHINGTON  0240   36     350/  9/ 17 1029.8R
ATWATER BUOY     0300   39     360/ 25/ 31 1029.1R
MILWAUKEE LAKESH 0200   37     340/ 16/ 20   N/A
S MID LAKE BUOY  0250   40 48  360/ 27/ 33 1026.2R  14/10
KENOSHA   LAKESH 0300   40     360/ 28/ 40 1027.1R
$$

TC  - TEMPERATURE IN CELSIUS
VSB - VISIBILITY IN STATUTE MILES
WCI - WIND CHILL INDEX
HX  - HEAT INDEX




USA.gov is the U.S. government's official web portal to all federal, state and local government web resources and services.